• In Romania
  • List of Countries
  • For 7 days
  • Water Temperature
  • Satellite Maps
  • Weather Map
  • Weather Widgets
  • user-avatar
    Login

    Hourly Weather Adelaide

    Today, 20 November, Monday

    Time Temperature Precipitation Wind Pressure Humidity
    00:00 +26°C° 0 mm 5 mps 756 mmHg 46%
    01:00 +25°C° 0 mm 5 mps 756 mmHg 47%
    02:00 +25°C° 0 mm 5 mps 756 mmHg 48%
    03:00 +25°C° 0 mm 5 mps 757 mmHg 48%
    04:00 +24°C° 0 mm 6 mps 757 mmHg 48%
    05:00 +26°C° 0 mm 6 mps 757 mmHg 48%
    06:00 +26°C° 0 mm 6 mps 757 mmHg 47%
    07:00 +28°C° 0 mm 6 mps 757 mmHg 43%
    08:00 +30°C° 0 mm 6 mps 758 mmHg 39%
    09:00 +33°C° 0 mm 6 mps 758 mmHg 35%
    10:00 +33°C° 0 mm 6 mps 757 mmHg 33%
    11:00 +34°C° 0 mm 5 mps 757 mmHg 31%
    12:00 +35°C° 0 mm 4 mps 757 mmHg 29%
    13:00 +34°C° 0 mm 4 mps 756 mmHg 30%
    14:00 +34°C° 0 mm 4 mps 756 mmHg 31%
    15:00 +33°C° 0 mm 3 mps 755 mmHg 30%
    16:00 +33°C° 0 mm 3 mps 755 mmHg 31%
    17:00 +31°C° 0 mm 3 mps 755 mmHg 32%
    18:00 +30°C° 0 mm 3 mps 756 mmHg 33%
    19:00 +30°C° 0 mm 4 mps 756 mmHg 33%
    20:00 +30°C° 0 mm 4 mps 756 mmHg 33%
    21:00 +29°C° 0 mm 5 mps 756 mmHg 33%
    22:00 +29°C° 0 mm 5 mps 756 mmHg 34%
    23:00 +28°C° 0 mm 5 mps 756 mmHg 36%

    Tomorrow, 21 November, Tuesday

    Time Temperature Precipitation Wind Pressure Humidity
    00:00 +28°C° 0 mm 5 mps 756 mmHg 37%
    01:00 +27°C° 0 mm 5 mps 756 mmHg 38%
    02:00 +27°C° 0 mm 5 mps 756 mmHg 40%
    03:00 +26°C° 0 mm 5 mps 756 mmHg 41%
    04:00 +27°C° 0 mm 5 mps 756 mmHg 41%
    05:00 +27°C° 0 mm 5 mps 757 mmHg 40%
    06:00 +27°C° 0 mm 5 mps 757 mmHg 40%
    07:00 +29°C° 0 mm 5 mps 757 mmHg 36%
    08:00 +32°C° 0 mm 6 mps 757 mmHg 33%
    09:00 +33°C° 0 mm 6 mps 757 mmHg 29%
    10:00 +34°C° 0 mm 6 mps 757 mmHg 27%
    11:00 +35°C° 0 mm 6 mps 756 mmHg 25%
    12:00 +36°C° 0 mm 5 mps 756 mmHg 23%
    13:00 +36°C° 0 mm 5 mps 756 mmHg 22%
    14:00 +36°C° 0 mm 5 mps 755 mmHg 20%
    15:00 +36°C° 0 mm 4 mps 754 mmHg 19%
    16:00 +35°C° 0 mm 4 mps 754 mmHg 20%
    17:00 +34°C° 0 mm 3 mps 754 mmHg 21%
    18:00 +33°C° 0 mm 3 mps 754 mmHg 22%
    19:00 +31°C° 0 mm 3 mps 754 mmHg 22%
    20:00 +30°C° 0 mm 3 mps 755 mmHg 22%
    21:00 +28°C° 0 mm 3 mps 755 mmHg 23%
    22:00 +28°C° 0 mm 4 mps 754 mmHg 24%
    23:00 +28°C° 0 mm 4 mps 754 mmHg 24%

    Day after tomorrow, 22 November, Wednesday

    Time Temperature Precipitation Wind Pressure Humidity
    00:00 +27°C° 0 mm 5 mps 754 mmHg 25%
    01:00 +27°C° 0 mm 5 mps 754 mmHg 26%
    02:00 +27°C° 0 mm 5 mps 754 mmHg 26%
    03:00 +27°C° 0 mm 5 mps 753 mmHg 27%
    04:00 +27°C° 0 mm 5 mps 754 mmHg 28%
    05:00 +27°C° 0 mm 4 mps 754 mmHg 28%
    06:00 +27°C° 0 mm 4 mps 755 mmHg 29%
    07:00 +29°C° 0 mm 5 mps 755 mmHg 27%
    08:00 +32°C° 0 mm 5 mps 755 mmHg 25%
    09:00 +34°C° 0 mm 5 mps 755 mmHg 23%
    10:00 +34°C° 0 mm 5 mps 755 mmHg 25%
    11:00 +33°C° 0 mm 5 mps 754 mmHg 26%
    12:00 +33°C° 0 mm 6 mps 754 mmHg 28%
    13:00 +32°C° 0 mm 5 mps 754 mmHg 35%
    14:00 +29°C° 0 mm 4 mps 753 mmHg 41%
    15:00 +28°C° 0 mm 3 mps 753 mmHg 48%
    16:00 +27°C° 0 mm 3 mps 753 mmHg 49%
    17:00 +27°C° 0 mm 2 mps 753 mmHg 50%
    18:00 +27°C° 0 mm 2 mps 753 mmHg 51%
    19:00 +26°C° 0 mm 2 mps 753 mmHg 52%
    20:00 +26°C° 0 mm 2 mps 753 mmHg 53%
    21:00 +25°C° 0 mm 3 mps 754 mmHg 54%
    22:00 +25°C° 0 mm 2 mps 753 mmHg 55%
    23:00 +24°C° 0 mm 2 mps 753 mmHg 57%

    23 November, Thursday

    Time Temperature Precipitation Wind Pressure Humidity
    00:00 +24°C° 0 mm 2 mps 753 mmHg 59%
    01:00 +23°C° 0.1 mm 2 mps 752 mmHg 60%
    02:00 +22°C° 0.1 mm 3 mps 752 mmHg 61%
    03:00 +22°C° 0.1 mm 3 mps 752 mmHg 62%
    04:00 +22°C° 0 mm 3 mps 752 mmHg 59%
    05:00 +24°C° 0 mm 3 mps 752 mmHg 56%
    06:00 +24°C° 0 mm 3 mps 752 mmHg 53%
    07:00 +25°C° 0 mm 3 mps 753 mmHg 49%
    08:00 +26°C° 0 mm 3 mps 753 mmHg 46%
    09:00 +27°C° 0 mm 2 mps 753 mmHg 42%
    10:00 +28°C° 0.1 mm 3 mps 753 mmHg 43%
    11:00 +28°C° 0.1 mm 3 mps 753 mmHg 44%
    12:00 +28°C° 0.1 mm 3 mps 753 mmHg 44%
    13:00 +28°C° 0.2 mm 3 mps 753 mmHg 46%
    14:00 +27°C° 0.2 mm 3 mps 752 mmHg 47%
    15:00 +27°C° 0.2 mm 3 mps 752 mmHg 49%
    16:00 +25°C° 1 mm 3 mps 752 mmHg 57%
    17:00 +24°C° 1 mm 3 mps 753 mmHg 66%
    18:00 +21°C° 1 mm 3 mps 753 mmHg 74%
    19:00 +21°C° 0.2 mm 3 mps 753 mmHg 75%
    20:00 +21°C° 0.2 mm 3 mps 753 mmHg 76%
    21:00 +20°C° 0.2 mm 3 mps 754 mmHg 77%
    22:00 +20°C° 0.1 mm 3 mps 753 mmHg 78%
    23:00 +20°C° 0.1 mm 2 mps 753 mmHg 79%

    24 November, Friday

    Time Temperature Precipitation Wind Pressure Humidity
    00:00 +20°C° 0.1 mm 2 mps 753 mmHg 80%
    01:00 +20°C° 0 mm 2 mps 753 mmHg 81%
    02:00 +20°C° 0 mm 2 mps 753 mmHg 82%
    03:00 +19°C° 0 mm 2 mps 753 mmHg 83%
    04:00 +20°C° 0 mm 2 mps 753 mmHg 81%
    05:00 +20°C° 0 mm 2 mps 754 mmHg 79%
    06:00 +21°C° 0 mm 2 mps 754 mmHg 77%
    07:00 +23°C° 0 mm 2 mps 754 mmHg 69%
    08:00 +25°C° 0 mm 2 mps 754 mmHg 60%
    09:00 +27°C° 0 mm 3 mps 755 mmHg 52%
    10:00 +27°C° 0.1 mm 3 mps 754 mmHg 51%
    11:00 +28°C° 0.1 mm 3 mps 754 mmHg 49%
    12:00 +28°C° 0.1 mm 3 mps 754 mmHg 47%
    13:00 +28°C° 0.1 mm 3 mps 753 mmHg 51%
    14:00 +27°C° 0.1 mm 3 mps 753 mmHg 54%
    15:00 +26°C° 0.1 mm 3 mps 753 mmHg 57%
    16:00 +25°C° 0.2 mm 4 mps 753 mmHg 62%
    17:00 +23°C° 0.2 mm 4 mps 753 mmHg 66%
    18:00 +22°C° 0.2 mm 5 mps 753 mmHg 71%
    19:00 +21°C° 0.3 mm 4 mps 754 mmHg 74%
    20:00 +20°C° 0.3 mm 4 mps 754 mmHg 77%
    21:00 +19°C° 0.3 mm 4 mps 754 mmHg 80%
    22:00 +19°C° 0 mm 3 mps 754 mmHg 81%
    23:00 +19°C° 0 mm 3 mps 754 mmHg 82%

    25 November, Saturday

    Time Temperature Precipitation Wind Pressure Humidity
    00:00 +18°C° 0 mm 3 mps 754 mmHg 84%
    01:00 +18°C° 0 mm 3 mps 753 mmHg 84%
    02:00 +18°C° 0 mm 3 mps 753 mmHg 84%
    03:00 +18°C° 0 mm 2 mps 753 mmHg 84%
    04:00 +19°C° 0 mm 2 mps 753 mmHg 82%
    05:00 +20°C° 0 mm 2 mps 754 mmHg 79%
    06:00 +21°C° 0 mm 1 mps 754 mmHg 76%
    07:00 +23°C° 0 mm 2 mps 754 mmHg 69%
    08:00 +25°C° 0 mm 2 mps 754 mmHg 62%
    09:00 +27°C° 0 mm 2 mps 754 mmHg 54%
    10:00 +27°C° 0.1 mm 3 mps 754 mmHg 54%
    11:00 +27°C° 0.1 mm 3 mps 754 mmHg 54%
    12:00 +27°C° 0.1 mm 3 mps 753 mmHg 53%
    13:00 +27°C° 0.7 mm 4 mps 753 mmHg 56%
    14:00 +26°C° 0.7 mm 4 mps 753 mmHg 58%
    15:00 +26°C° 0.7 mm 5 mps 753 mmHg 61%
    16:00 +25°C° 0.2 mm 4 mps 753 mmHg 65%
    17:00 +23°C° 0.2 mm 4 mps 754 mmHg 69%
    18:00 +22°C° 0.2 mm 4 mps 754 mmHg 72%
    19:00 +21°C° 0 mm 4 mps 754 mmHg 77%
    20:00 +20°C° 0 mm 3 mps 755 mmHg 82%
    21:00 +19°C° 0 mm 3 mps 755 mmHg 86%
    22:00 +19°C° 0 mm 3 mps 755 mmHg 87%
    23:00 +18°C° 0 mm 3 mps 754 mmHg 88%
    Show more